Find Starlink 11302

NORAD ID: 61204 Int'l Des: 2024-171 Owner: SPXS Country: US Constellation: starlink operational
又名: STARLINK-11302 [DTC] celestrak
LEOCIRCULAR

当前视图

正在加载3D地球...

About Starlink 11302

Starlink 11302 (NORAD 61204) is a starlink constellation satellite (v2 mini d2c) launched Sep 20, 2024 by SPXS of US. It operates in LEO, CIRCULAR orbit with a mass of 960.00 kg.

即将过境

Passes for default location (London). Set your location on the main map for personalized predictions.

高度历史

Loading altitude history...

两行轨道根数

1 61204U 24171E 26262.39990313 -.00003153 00000-0 -21168-4 0 9999
2 61204 53.1589 301.3003 0001050 53.0903 307.0211 15.69715739114825
Epoch: Sep 19, 2026 • Age: 42 hours

当前状态

高度 363.8 km
远地点 / 近地点 N/A
速度 7.70 km/s
星下点 44.00°N, 16.21°E
发射日期 Sep 20, 2024
运行时间 1.9 years
类型 internet

技术详情

分类 Payload
质量 960.00 kg
干质量 910.00 kg
长度 0.30 m
跨度 29.00 m
形状 ? Box + pan
制造商 SPXS
平台类型 Starlink V2MD
阶段状态 In Orbit
所有者/国家 SPXS/US

Most Searched